Home > Time Zones > World Clock > Weather > Italy > Milan > Past weeks

Flag for Italy Weather past 2 weeks in Milan, Italy

64 °F

Passing clouds.

Feels Like: 64 °F
Forecast: 54 / 68 °F
Wind: 8 mph from South

Location: Milan / Linate

Current Time: Oct 10, 2015 at 6:42:00 PM

Latest Report: Oct 10, 2015 at 5:50 PM

Visibility: N/A

Pressure: 29.77 "Hg

Humidity: 64%

Dew point: 52 °F

Location of MilanLocation

Historic Weather in Milan — Graph


Milan temperature yesterday

Maximum temperature yesterday: 72 °F (at 3:20 PM)
Minimum temperature yesterday: 57 °F (at 2:50 AM)
Average temperature yesterday: 63 °F

Past Weeks' High & Low Weather Summary

High75 °F (Sep 25, 5:20 PM)100% (Oct 3, 12:50 AM)30.36 "Hg (Oct 3, 12:50 AM)
Low48 °F (Oct 1, 6:50 AM)37% (Sep 28, 5:20 PM)29.77 "Hg (Oct 10, 3:50 PM)
Average62 °F74%30.10 "Hg
* Reported Sep 25 5:20 PM — Oct 10 5:20 PM, Milan, Weather by CustomWeather, © 2015

Note: Actual official high and low records may vary slightly from our data, if they occured in-between our weather recording intervals... More about our weather records


Milan weather history for previous 24 hours

Time TempWeatherWind HumidityBarometerVisibility
5:20 PM
Sat, Oct 10
66 °FPassing clouds.5 mph60%29.77 "HgN/A
4:50 PM68 °FPassing clouds.5 mph60%29.77 "HgN/A
4:20 PM68 °FScattered clouds.3 mph60%29.77 "HgN/A
3:50 PM68 °FScattered clouds.5 mph60%29.77 "HgN/A
3:20 PM68 °FScattered clouds.6 mph64%29.80 "HgN/A
2:50 PM68 °FPassing clouds.5 mph64%29.80 "HgN/A
2:20 PM68 °FScattered clouds.5 mph64%29.80 "HgN/A
1:50 PM66 °FScattered clouds.6 mph68%29.83 "HgN/A
1:20 PM66 °FScattered clouds.6 mph68%29.83 "HgN/A
12:50 PM68 °FScattered clouds.6 mph64%29.86 "HgN/A
12:20 PM66 °FScattered clouds.5 mph68%29.86 "HgN/A
11:50 AM66 °FPassing clouds.3 mph64%29.86 "HgN/A
11:20 AM66 °FPassing clouds.3 mph64%29.89 "HgN/A
10:50 AM66 °FPassing clouds.3 mph64%29.89 "HgN/A
10:20 AM64 °FPassing clouds.1 mph78%29.89 "HgN/A
9:50 AM63 °FPassing clouds.2 mph83%29.89 "HgN/A
9:20 AM59 °FPassing clouds.2 mph94%29.89 "HgN/A
8:50 AM59 °FPassing clouds.2 mph94%29.92 "Hg6 mi
8:20 AM59 °FFog.2 mph88%29.92 "Hg5 mi
7:50 AM57 °FPassing clouds.2 mph94%29.92 "Hg4 mi
7:20 AM59 °FPassing clouds.5 mph88%29.92 "HgN/A
6:50 AM59 °FLight rain. Passing clouds.3 mph94%29.92 "HgN/A
6:20 AM59 °FLight rain. Passing clouds.3 mph88%29.92 "HgN/A
5:50 AM59 °FLight rain. Passing clouds.2 mph88%29.95 "HgN/A
5:20 AM59 °FLight rain. Passing clouds.3 mph88%29.95 "HgN/A
4:50 AM57 °FLight rain. Passing clouds.3 mph94%29.95 "HgN/A
4:20 AM59 °FLight rain. Passing clouds.5 mph88%29.95 "HgN/A
3:50 AM59 °FLight rain. Passing clouds.5 mph94%29.98 "HgN/A
3:20 AM59 °FLight rain. Passing clouds.2 mph94%29.98 "HgN/A
2:50 AM59 °FLight rain. Passing clouds.3 mph94%29.98 "HgN/A
2:20 AM59 °FLight rain. Passing clouds.5 mph94%29.98 "HgN/A
1:50 AM61 °FLight rain. Passing clouds.5 mph88%29.98 "HgN/A
1:20 AM61 °FPassing clouds.3 mph88%29.98 "HgN/A
12:50 AM61 °FPassing clouds.1 mph88%30.01 "HgN/A
12:20 AM61 °FPassing clouds.2 mph88%30.01 "HgN/A
11:50 PM
Fri, Oct 9
61 °FPassing clouds.2 mph88%30.01 "HgN/A
10:50 PM61 °FClear.3 mph88%30.01 "Hg10 mi
10:20 PM61 °FPassing clouds.3 mph83%30.01 "HgN/A
9:50 PM63 °FClear.2 mph77%30.01 "Hg10 mi
9:20 PM61 °FClear.1 mph88%30.01 "Hg10 mi
8:50 PM63 °FClear.2 mph77%30.01 "Hg10 mi
8:20 PM63 °FClear.2 mph77%30.01 "Hg10 mi
7:50 PM64 °FPassing clouds.2 mph73%30.01 "HgN/A
7:20 PM66 °FScattered clouds.3 mph73%30.01 "HgN/A
6:50 PM66 °FScattered clouds.2 mph73%30.01 "HgN/A
6:20 PM68 °FScattered clouds.3 mph60%30.01 "HgN/A
Weather by CustomWeather, © 2015

See weather overviewHow to use our weather pages